TimeEST,TemperatureF,Dew PointF,Humidity,Sea Level PressureIn,VisibilityMPH,Wind Direction,Wind SpeedMPH,Gust SpeedMPH,PrecipitationIn,Events,Conditions,WindDirDegrees,DateUTC
12:14 AM,22.8,20.3,90,30.22,7.0,South,8.1,-,N/A,,Clear,190,2013-01-08 05:14:00
12:35 AM,21.0,17.8,87,30.23,5.0,SW,6.9,-,N/A,,Clear,230,2013-01-08 05:35:00
12:54 AM,20.7,18.3,91,30.24,5.0,SW,6.9,-,N/A,,Clear,230,2013-01-08 05:54:00
1:34 AM,23.0,20.5,90,30.22,5.0,South,6.9,-,N/A,,Clear,190,2013-01-08 06:34:00
1:54 AM,21.7,18.5,87,30.21,5.0,South,5.8,-,N/A,,Clear,190,2013-01-08 06:54:00
2:14 AM,20.3,18.3,92,30.22,4.0,SSW,3.5,-,N/A,,Clear,200,2013-01-08 07:14:00
2:34 AM,13.3,9.9,86,30.22,2.5,SSW,3.5,-,N/A,,Clear,210,2013-01-08 07:34:00
2:54 AM,11.5,9.0,90,30.23,2.5,SW,3.5,-,N/A,,Clear,230,2013-01-08 07:54:00
3:14 AM,14.0,12.0,92,30.24,1.5,WSW,4.6,-,N/A,,Unknown,240,2013-01-08 08:14:00
3:35 AM,14.5,12.6,92,30.24,1.5,South,3.5,-,N/A,,Unknown,180,2013-01-08 08:35:00
3:54 AM,11.3,8.6,89,30.25,3.0,Calm,Calm,-,N/A,,Clear,0,2013-01-08 08:54:00
4:14 AM,14.4,12.0,90,30.24,2.5,South,4.6,-,N/A,,Clear,170,2013-01-08 09:14:00
4:35 AM,14.2,11.5,89,30.24,3.0,South,3.5,-,N/A,,Clear,170,2013-01-08 09:35:00
4:54 AM,17.4,15.6,93,30.24,2.5,Calm,Calm,-,N/A,,Clear,0,2013-01-08 09:54:00
5:14 AM,14.4,11.5,88,30.24,3.0,Calm,Calm,-,N/A,,Clear,0,2013-01-08 10:14:00
5:34 AM,14.7,12.6,91,30.24,2.5,Calm,Calm,-,N/A,,Clear,0,2013-01-08 10:34:00
5:54 AM,16.9,14.9,92,30.24,3.0,South,4.6,-,N/A,,Clear,180,2013-01-08 10:54:00
6:14 AM,18.0,16.0,92,30.24,4.0,South,5.8,-,N/A,,Clear,190,2013-01-08 11:14:00
6:34 AM,20.1,18.3,93,30.25,5.0,SSW,8.1,-,N/A,,Clear,200,2013-01-08 11:34:00
6:54 AM,21.6,19.4,91,30.26,5.0,SSW,6.9,-,N/A,,Clear,200,2013-01-08 11:54:00
7:14 AM,20.7,18.7,92,30.26,5.0,SSW,4.6,-,N/A,,Clear,200,2013-01-08 12:14:00
7:34 AM,20.8,18.9,92,30.27,7.0,SSW,3.5,-,N/A,,Clear,210,2013-01-08 12:34:00
7:54 AM,20.3,18.3,92,30.27,4.0,Calm,Calm,-,N/A,,Clear,0,2013-01-08 12:54:00
8:34 AM,21.7,19.4,91,30.28,5.0,SSW,8.1,-,N/A,,Clear,200,2013-01-08 13:34:00
8:54 AM,19.6,16.9,89,30.28,4.0,Calm,Calm,-,N/A,,Clear,0,2013-01-08 13:54:00
9:14 AM,19.2,16.7,90,30.29,4.0,SW,5.8,-,N/A,,Clear,220,2013-01-08 14:14:00
9:34 AM,21.7,18.9,89,30.30,4.0,Calm,Calm,-,N/A,,Clear,0,2013-01-08 14:34:00
10:14 AM,24.6,20.8,86,30.32,5.0,SSW,5.8,-,N/A,,Clear,200,2013-01-08 15:14:00
10:34 AM,26.1,21.0,81,30.32,5.0,SSW,3.5,-,N/A,,Clear,200,2013-01-08 15:34:00
10:54 AM,26.8,21.4,80,30.32,5.0,Calm,Calm,-,N/A,,Clear,0,2013-01-08 15:54:00
11:14 AM,29.7,22.5,75,30.30,7.0,South,5.8,-,N/A,,Clear,180,2013-01-08 16:14:00
11:34 AM,31.1,23.4,73,30.30,7.0,SSW,4.6,-,N/A,,Clear,200,2013-01-08 16:34:00
11:54 AM,32.0,24.1,73,30.30,7.0,South,4.6,-,N/A,,Clear,190,2013-01-08 16:54:00
12:14 PM,32.7,24.6,72,30.29,7.0,SSW,3.5,-,N/A,,Clear,200,2013-01-08 17:14:00
12:34 PM,34.0,25.3,71,30.28,10.0,SW,5.8,-,N/A,,Clear,220,2013-01-08 17:34:00
12:54 PM,34.7,25.7,70,30.27,10.0,South,5.8,-,N/A,,Clear,190,2013-01-08 17:54:00
1:34 PM,36.3,25.9,66,30.26,10.0,South,8.1,-,N/A,,Clear,190,2013-01-08 18:34:00
1:54 PM,37.0,26.2,65,30.26,10.0,SSW,8.1,-,N/A,,Clear,200,2013-01-08 18:54:00
2:14 PM,37.2,27.1,67,30.26,10.0,South,8.1,-,N/A,,Clear,190,2013-01-08 19:14:00
2:54 PM,38.3,27.5,65,30.26,10.0,South,6.9,-,N/A,,Clear,190,2013-01-08 19:54:00
3:14 PM,38.5,27.7,65,30.27,10.0,SSW,8.1,-,N/A,,Clear,200,2013-01-08 20:14:00
3:34 PM,38.3,28.0,67,30.27,10.0,SSW,6.9,-,N/A,,Clear,200,2013-01-08 20:34:00
3:54 PM,38.7,28.4,67,30.27,10.0,South,6.9,-,N/A,,Clear,190,2013-01-08 20:54:00
4:14 PM,38.1,28.6,69,30.27,10.0,South,8.1,-,N/A,,Clear,190,2013-01-08 21:14:00
4:34 PM,37.4,28.9,71,30.26,10.0,South,4.6,-,N/A,,Clear,180,2013-01-08 21:34:00
4:54 PM,37.9,28.4,69,30.26,10.0,South,3.5,-,N/A,,Clear,170,2013-01-08 21:54:00
5:14 PM,36.0,28.4,74,30.27,10.0,South,3.5,-,N/A,,Clear,180,2013-01-08 22:14:00
5:34 PM,34.3,28.2,78,30.27,10.0,Calm,Calm,-,N/A,,Clear,0,2013-01-08 22:34:00
5:54 PM,31.8,26.4,80,30.26,10.0,Calm,Calm,-,N/A,,Clear,0,2013-01-08 22:54:00
6:14 PM,31.6,26.8,82,30.25,10.0,Calm,Calm,-,N/A,,Clear,0,2013-01-08 23:14:00
6:34 PM,32.7,27.3,81,30.26,10.0,Calm,Calm,-,N/A,,Clear,0,2013-01-08 23:34:00
6:54 PM,28.2,23.9,84,30.26,10.0,Calm,Calm,-,N/A,,Clear,0,2013-01-08 23:54:00
7:14 PM,29.5,24.1,80,30.26,10.0,Calm,Calm,-,N/A,,Clear,0,2013-01-09 00:14:00
7:34 PM,30.0,25.3,83,30.27,10.0,Calm,Calm,-,N/A,,Clear,0,2013-01-09 00:34:00
7:54 PM,32.7,28.0,83,30.26,10.0,SSE,3.5,-,N/A,,Clear,160,2013-01-09 00:54:00
8:34 PM,32.7,27.7,82,30.25,10.0,South,4.6,-,N/A,,Clear,190,2013-01-09 01:34:00
8:54 PM,32.9,27.7,81,30.25,10.0,South,6.9,-,N/A,,Clear,170,2013-01-09 01:54:00
9:14 PM,37.4,29.3,73,30.24,10.0,South,6.9,-,N/A,,Clear,170,2013-01-09 02:14:00
9:34 PM,35.8,28.2,74,30.23,10.0,South,5.8,-,N/A,,Clear,170,2013-01-09 02:34:00
9:54 PM,36.3,28.4,73,30.23,10.0,South,5.8,-,N/A,,Clear,170,2013-01-09 02:54:00
10:14 PM,35.6,28.0,74,30.23,10.0,South,5.8,-,N/A,,Clear,170,2013-01-09 03:14:00
10:34 PM,32.7,26.6,78,30.23,10.0,SSW,6.9,-,N/A,,Clear,200,2013-01-09 03:34:00
10:54 PM,33.8,27.0,76,30.23,10.0,South,8.1,-,N/A,,Clear,190,2013-01-09 03:54:00
11:14 PM,32.5,25.9,76,30.23,10.0,SSW,8.1,-,N/A,,Clear,210,2013-01-09 04:14:00
11:34 PM,32.2,25.9,78,30.23,10.0,SSW,8.1,-,N/A,,Clear,210,2013-01-09 04:34:00
11:54 PM,33.3,26.8,77,30.23,10.0,SSW,10.4,-,N/A,,Clear,210,2013-01-09 04:54:00